STSAT-3

Last updated on Mon Sep 21 2026 00:03:33 GMT+0000 (Coordinated Universal Time)

1 39422U 13066G 26263.58262454 .00001619 00000+0 12404-3 0 9991 2 39422 97.6343 232.0038 0011468 73.9129 286.3359 15.03204710698533
UTC large
Height (km)
Speed (km/s)
/
Latitude / Longitude
Inclination (degrees)
Orbital Period (minutes)
Azimuth
Elevation
Range (km)
Doppler Factor

Next 0 passes for location: London (51.5072 / 0.1276)

No passes found over London.
STSAT-3